Home   Weather   Portsmouth   Past weeks
Flag for United Kingdom

Past Weather in Portsmouth, England, United Kingdom — Yesterday and Last 2 Weeks

Now
55 °F

Sunny.


Feels Like: 55 °F
Forecast: 71 / 62 °F
Wind: 1 mph from East

Location: Southampton / Weather Centre

Current Time: Jul 21, 2019 at 8:01:47 am

Latest Report: Jul 21, 2019 at 7:20 am


Visibility: 10 mi

Pressure: 30.12 "Hg

Humidity: 94%

Dew Point: 54 °F

Location of PortsmouthLocation

Past Weather in Portsmouth — Graph

°F

Portsmouth Temperature Yesterday

Maximum temperature yesterday: 72 °F (at 2:50 pm)
Minimum temperature yesterday: 59 °F (at 10:50 pm)
Average temperature yesterday: 65 °F

High & Low Weather Summary for the Past Weeks

 TemperatureHumidityPressure
High75 °F (Jul 6, 1:50 pm)94% (Jul 17, 6:20 am)30.21 "Hg (Jul 17, 6:20 am)
Low46 °F (Jul 8, 5:50 am)40% (Jul 8, 5:50 pm)29.71 "Hg (Jul 20, 5:50 am)
Average65 °F64%30.03 "Hg
* Reported Jul 6 6:20 am — Jul 21 6:50 am, Portsmouth. Weather by CustomWeather, © 2019

Note: Actual official high and low records may vary slightly from our data, if they occured in-between our weather recording intervals... More about our weather records

Advertising

Portsmouth Weather History for the Previous 24 Hours

Scroll right to see more
 ConditionsComfort  
Time TempWeatherWind HumidityBarometerVisibility
6:50 am
Sun, Jul 21
54 °FSunny.No wind88%30.12 "Hg10 mi
10:50 pm
Sat, Jul 20
59 °FPassing clouds.5 mph63%30.01 "HgN/A
10:20 pm61 °FPassing clouds.5 mph59%30.01 "HgN/A
9:50 pm61 °FClear.6 mph63%29.98 "Hg10 mi
9:20 pm63 °FPassing clouds.7 mph59%29.98 "HgN/A
8:50 pm64 °FPassing clouds.7 mph56%29.95 "HgN/A
8:20 pm66 °FPassing clouds.9 mph56%29.95 "HgN/A
7:50 pm66 °FPassing clouds.10 mph56%29.92 "HgN/A
7:20 pm68 °FPassing clouds.12 mph56%29.92 "HgN/A
6:50 pm68 °FScattered clouds.12 mph53%29.89 "HgN/A
6:20 pm68 °FScattered clouds.13 mph56%29.89 "HgN/A
5:50 pm68 °FScattered clouds.13 mph60%29.86 "HgN/A
5:20 pm68 °FScattered clouds.15 mph60%29.86 "HgN/A
4:50 pm68 °FScattered clouds.16 mph64%29.86 "HgN/A
4:20 pm68 °FScattered clouds.18 mph64%29.83 "HgN/A
3:50 pm68 °FScattered clouds.17 mph64%29.83 "HgN/A
3:20 pm70 °FScattered clouds.13 mph60%29.83 "HgN/A
2:50 pm72 °FScattered clouds.15 mph47%29.83 "HgN/A
2:20 pm70 °FScattered clouds.14 mph53%29.80 "HgN/A
1:50 pm70 °FScattered clouds.15 mph53%29.80 "HgN/A
12:50 pm68 °FScattered clouds.13 mph60%29.80 "HgN/A
12:20 pm68 °FScattered showers. Scattered clouds.10 mph69%29.77 "HgN/A
11:20 am64 °FScattered showers. Scattered clouds.12 mph83%29.77 "HgN/A
10:50 am63 °FLight rain. Broken clouds.13 mph88%29.77 "HgN/A
10:20 am64 °FBroken clouds.14 mph83%29.74 "HgN/A
9:50 am64 °FBroken clouds.12 mph83%29.74 "HgN/A
9:20 am64 °FPartly sunny.10 mph88%29.74 "HgN/A
8:50 am64 °FPartly sunny.9 mph88%29.74 "HgN/A
8:20 am63 °FScattered showers. Partly sunny.9 mph88%29.74 "HgN/A
Weather by CustomWeather, © 2019

See weather overview